Flag for Finland Weather past 2 weeks in Kuopio, Finland

Now
61 °F

Sunny.


Feels Like: 61 °F
Forecast: 52 / 69 °F
Wind: 5 mph from West

Location: Kuopio Airport

Current Time: Aug 4, 2015 at 9:16:39 PM

Latest Report: Aug 4, 2015 at 8:50 PM


Visibility: 10 mi

Pressure: 30.15 "Hg

Humidity: 77%

Dew point: 54 °F

Location of KuopioLocation

Historic Weather in Kuopio — Graph

°F

Kuopio temperature yesterday

Maximum temperature yesterday: 66 °F (at 2:50 PM)
Minimum temperature yesterday: 54 °F (at 1:50 AM)
Average temperature yesterday: 60 °F

Past Weeks' High & Low Weather Summary

 TemperatureHumidityPressure
High70 °F (Jul 25, 4:50 PM)100% (Jul 22, 6:20 AM)30.12 "Hg (Jul 22, 6:20 AM)
Low52 °F (Jul 21, 4:20 AM)43% (Jul 25, 6:20 PM)29.45 "Hg (Jul 29, 1:20 PM)
Average60 °F80%29.68 "Hg
* Reported Jul 20 8:20 PM — Aug 4 8:20 PM, Kuopio, Weather by CustomWeather, © 2015

Note: Actual official high and low records may vary slightly from our data, if they occured in-between our weather recording intervals... More about our weather records

Advertising

Kuopio weather history for previous 24 hours

 ConditionsComfort  
Time TempWeatherWind HumidityBarometerVisibility
8:20 PM
Tue, Aug 4
63 °FSunny.5 mph73%30.12 "Hg10 mi
7:50 PM64 °FSunny.7 mph68%30.12 "Hg10 mi
7:20 PM64 °FPassing clouds.6 mph64%30.12 "HgN/A
6:50 PM64 °FScattered clouds.6 mph64%30.12 "HgN/A
6:20 PM64 °FBroken clouds.6 mph73%30.12 "HgN/A
5:50 PM63 °FSprinkles. Partly sunny.12 mph77%30.12 "HgN/A
5:20 PM64 °FMild.8 mph60%30.12 "HgN/A
4:50 PM64 °FScattered clouds.5 mph68%30.12 "HgN/A
4:20 PM63 °FScattered showers. Partly sunny.7 mph68%30.12 "HgN/A
3:50 PM63 °FSprinkles. Partly sunny.7 mph73%30.12 "HgN/A
3:20 PM66 °FPassing clouds.10 mph60%30.12 "HgN/A
2:50 PM66 °FSunny.9 mph64%30.09 "Hg10 mi
2:20 PM64 °FPartly sunny.7 mph68%30.09 "HgN/A
1:50 PM64 °FScattered showers. Partly sunny.7 mph73%30.09 "HgN/A
1:20 PM64 °FPartly sunny.9 mph73%30.09 "HgN/A
12:50 PM61 °FPartly sunny.5 mph88%30.12 "HgN/A
12:20 PM59 °FLots of rain. Broken clouds.10 mph82%30.12 "HgN/A
11:50 AM63 °FPartly sunny.5 mph73%30.09 "HgN/A
11:20 AM61 °FSprinkles. Partly sunny.6 mph83%30.09 "HgN/A
10:50 AM61 °FLight rain. Partly sunny.9 mph83%30.09 "HgN/A
10:20 AM63 °FPartly sunny.7 mph73%30.09 "HgN/A
9:50 AM61 °FBroken clouds.8 mph77%30.09 "HgN/A
9:20 AM61 °FPartly sunny.7 mph77%30.09 "HgN/A
8:50 AM59 °FPartly sunny.8 mph88%30.09 "HgN/A
8:20 AM57 °FPartly sunny.7 mph88%30.09 "HgN/A
7:20 AM57 °FSunny.5 mph88%30.09 "Hg10 mi
6:50 AM57 °FPassing clouds.5 mph88%30.07 "HgN/A
6:20 AM55 °FSunny.6 mph94%30.07 "Hg10 mi
5:50 AM55 °FSunny.7 mph88%30.07 "Hg10 mi
5:20 AM55 °FClear.7 mph88%30.07 "Hg10 mi
4:50 AM55 °FClear.5 mph88%30.07 "Hg10 mi
4:20 AM55 °FPassing clouds.6 mph94%30.07 "HgN/A
3:50 AM57 °FPassing clouds.7 mph88%30.07 "HgN/A
3:20 AM57 °FOvercast.7 mph88%30.07 "HgN/A
2:50 AM57 °FPassing clouds.7 mph88%30.07 "HgN/A
2:20 AM57 °FOvercast.5 mph88%30.07 "HgN/A
1:50 AM57 °FClear.6 mph88%30.04 "Hg10 mi
1:20 AM57 °FClear.8 mph82%30.04 "Hg10 mi
12:20 AM59 °FPassing clouds.7 mph82%30.04 "HgN/A
11:50 PM
Mon, Aug 3
59 °FPassing clouds.6 mph82%30.04 "HgN/A
11:20 PM59 °FClear.6 mph82%30.04 "Hg10 mi
10:50 PM61 °FSunny.6 mph72%30.01 "Hg10 mi
10:20 PM61 °FSunny.6 mph77%30.01 "Hg10 mi
9:50 PM61 °FSunny.5 mph72%30.01 "Hg10 mi
9:20 PM63 °FSunny.7 mph68%30.01 "Hg10 mi
Weather by CustomWeather, © 2015

See weather overviewHow to use our weather pages